• In Hungary
  • List of Countries
  • For 7 days
  • Water Temperature
  • Satellite Maps
  • Weather Map
  • News
  • Weather Widgets
  • user-avatar
    Login

    Hourly Weather Konakri

    Today, 22 November, Wednesday

    Time Temperature Precipitation Wind Pressure Humidity
    00:00 +28°C° 0.1 mm 1 mps 758 mmHg 87%
    01:00 +28°C° 0.1 mm 1 mps 757 mmHg 88%
    02:00 +27°C° 0.1 mm 1 mps 757 mmHg 88%
    03:00 +27°C° 0 mm 1 mps 757 mmHg 89%
    04:00 +27°C° 0 mm 1 mps 757 mmHg 90%
    05:00 +27°C° 0 mm 1 mps 757 mmHg 90%
    06:00 +28°C° 0.2 mm 1 mps 757 mmHg 88%
    07:00 +28°C° 0.2 mm 1 mps 757 mmHg 85%
    08:00 +29°C° 0.2 mm 1 mps 758 mmHg 82%
    09:00 +30°C° 0 mm 1 mps 758 mmHg 76%
    10:00 +31°C° 0 mm 1 mps 758 mmHg 70%
    11:00 +33°C° 0 mm 1 mps 757 mmHg 63%
    12:00 +34°C° 0 mm 2 mps 757 mmHg 61%
    13:00 +34°C° 0 mm 2 mps 756 mmHg 59%
    14:00 +35°C° 0 mm 3 mps 756 mmHg 57%
    15:00 +34°C° 0 mm 3 mps 756 mmHg 63%
    16:00 +33°C° 0 mm 3 mps 756 mmHg 69%
    17:00 +30°C° 0 mm 3 mps 756 mmHg 75%
    18:00 +30°C° 0 mm 3 mps 756 mmHg 78%
    19:00 +29°C° 0 mm 3 mps 757 mmHg 81%
    20:00 +28°C° 0 mm 3 mps 757 mmHg 83%
    21:00 +28°C° 0 mm 3 mps 757 mmHg 84%
    22:00 +28°C° 0 mm 2 mps 757 mmHg 85%
    23:00 +28°C° 0 mm 2 mps 757 mmHg 86%

    Tomorrow, 23 November, Thursday

    Time Temperature Precipitation Wind Pressure Humidity
    00:00 +28°C° 0 mm 2 mps 757 mmHg 86%
    01:00 +28°C° 0 mm 2 mps 757 mmHg 87%
    02:00 +27°C° 0 mm 2 mps 757 mmHg 88%
    03:00 +28°C° 0 mm 2 mps 757 mmHg 88%
    04:00 +28°C° 0 mm 2 mps 757 mmHg 87%
    05:00 +28°C° 0 mm 2 mps 757 mmHg 87%
    06:00 +28°C° 0.1 mm 1 mps 757 mmHg 84%
    07:00 +29°C° 0.1 mm 1 mps 757 mmHg 80%
    08:00 +30°C° 0.1 mm 1 mps 758 mmHg 77%
    09:00 +31°C° 0 mm 2 mps 758 mmHg 72%
    10:00 +32°C° 0 mm 2 mps 758 mmHg 67%
    11:00 +34°C° 0 mm 2 mps 758 mmHg 62%
    12:00 +34°C° 0 mm 3 mps 757 mmHg 63%
    13:00 +34°C° 0 mm 3 mps 756 mmHg 64%
    14:00 +34°C° 0 mm 4 mps 756 mmHg 65%
    15:00 +33°C° 0.1 mm 3 mps 756 mmHg 69%
    16:00 +31°C° 0.1 mm 3 mps 756 mmHg 73%
    17:00 +30°C° 0.1 mm 3 mps 756 mmHg 76%
    18:00 +30°C° 0 mm 3 mps 757 mmHg 79%
    19:00 +29°C° 0 mm 3 mps 758 mmHg 82%
    20:00 +29°C° 0 mm 3 mps 758 mmHg 85%
    21:00 +28°C° 0 mm 3 mps 758 mmHg 86%
    22:00 +28°C° 0 mm 3 mps 759 mmHg 86%
    23:00 +28°C° 0 mm 2 mps 759 mmHg 87%

    Day after tomorrow, 24 November, Friday

    Time Temperature Precipitation Wind Pressure Humidity
    00:00 +28°C° 0 mm 2 mps 758 mmHg 88%
    01:00 +28°C° 0 mm 2 mps 758 mmHg 88%
    02:00 +28°C° 0 mm 2 mps 758 mmHg 89%
    03:00 +28°C° 0 mm 2 mps 758 mmHg 89%
    04:00 +28°C° 0 mm 2 mps 758 mmHg 89%
    05:00 +27°C° 0 mm 2 mps 758 mmHg 90%
    06:00 +28°C° 0 mm 2 mps 758 mmHg 86%
    07:00 +29°C° 0 mm 2 mps 758 mmHg 82%
    08:00 +30°C° 0 mm 2 mps 759 mmHg 78%
    09:00 +31°C° 0 mm 2 mps 759 mmHg 73%
    10:00 +32°C° 0 mm 2 mps 759 mmHg 68%
    11:00 +34°C° 0 mm 2 mps 758 mmHg 63%
    12:00 +34°C° 0 mm 3 mps 758 mmHg 62%
    13:00 +34°C° 0 mm 3 mps 757 mmHg 62%
    14:00 +34°C° 0 mm 3 mps 756 mmHg 61%
    15:00 +33°C° 0.1 mm 3 mps 756 mmHg 65%
    16:00 +33°C° 0.1 mm 3 mps 756 mmHg 68%
    17:00 +31°C° 0.1 mm 3 mps 756 mmHg 72%
    18:00 +30°C° 0 mm 3 mps 757 mmHg 75%
    19:00 +29°C° 0 mm 3 mps 758 mmHg 78%
    20:00 +28°C° 0 mm 3 mps 758 mmHg 81%
    21:00 +28°C° 0.1 mm 3 mps 758 mmHg 81%
    22:00 +28°C° 0.1 mm 3 mps 758 mmHg 82%
    23:00 +28°C° 0.1 mm 2 mps 759 mmHg 83%

    25 November, Saturday

    Time Temperature Precipitation Wind Pressure Humidity
    00:00 +28°C° 0 mm 2 mps 758 mmHg 84%
    01:00 +28°C° 0 mm 2 mps 758 mmHg 84%
    02:00 +27°C° 0 mm 2 mps 757 mmHg 85%
    03:00 +27°C° 0 mm 2 mps 757 mmHg 85%
    04:00 +27°C° 0 mm 1 mps 757 mmHg 86%
    05:00 +27°C° 0 mm 1 mps 757 mmHg 87%
    06:00 +28°C° 0 mm 1 mps 758 mmHg 83%
    07:00 +29°C° 0 mm 1 mps 758 mmHg 79%
    08:00 +30°C° 0 mm 1 mps 759 mmHg 74%
    09:00 +30°C° 0 mm 2 mps 759 mmHg 73%
    10:00 +31°C° 0 mm 2 mps 758 mmHg 71%
    11:00 +31°C° 0 mm 3 mps 758 mmHg 69%
    12:00 +33°C° 0 mm 3 mps 758 mmHg 68%
    13:00 +33°C° 0 mm 3 mps 757 mmHg 67%
    14:00 +33°C° 0 mm 3 mps 756 mmHg 66%
    15:00 +33°C° 0 mm 3 mps 756 mmHg 69%
    16:00 +31°C° 0 mm 3 mps 756 mmHg 72%
    17:00 +30°C° 0 mm 3 mps 756 mmHg 74%
    18:00 +30°C° 0 mm 3 mps 757 mmHg 78%
    19:00 +29°C° 0 mm 2 mps 758 mmHg 81%
    20:00 +28°C° 0 mm 2 mps 758 mmHg 84%
    21:00 +28°C° 0 mm 2 mps 758 mmHg 85%
    22:00 +28°C° 0 mm 2 mps 758 mmHg 86%
    23:00 +28°C° 0 mm 2 mps 758 mmHg 87%

    26 November, Sunday

    Time Temperature Precipitation Wind Pressure Humidity
    00:00 +28°C° 0 mm 2 mps 758 mmHg 87%
    01:00 +27°C° 0 mm 2 mps 757 mmHg 88%
    02:00 +27°C° 0 mm 2 mps 757 mmHg 89%
    03:00 +27°C° 0 mm 2 mps 757 mmHg 90%
    04:00 +27°C° 0 mm 1 mps 757 mmHg 90%
    05:00 +27°C° 0 mm 1 mps 757 mmHg 91%
    06:00 +27°C° 0 mm 1 mps 758 mmHg 88%
    07:00 +28°C° 0 mm 1 mps 758 mmHg 84%
    08:00 +29°C° 0 mm 2 mps 759 mmHg 81%
    09:00 +30°C° 0.1 mm 1 mps 759 mmHg 76%
    10:00 +31°C° 0.1 mm 1 mps 759 mmHg 70%
    11:00 +33°C° 0.1 mm 1 mps 758 mmHg 65%
    12:00 +34°C° 0 mm 2 mps 758 mmHg 64%
    13:00 +34°C° 0 mm 2 mps 757 mmHg 64%
    14:00 +34°C° 0 mm 3 mps 756 mmHg 63%
    15:00 +33°C° 0 mm 3 mps 756 mmHg 67%
    16:00 +33°C° 0 mm 3 mps 756 mmHg 70%
    17:00 +32°C° 0 mm 4 mps 756 mmHg 74%
    18:00 +30°C° 0 mm 3 mps 757 mmHg 78%
    19:00 +29°C° 0 mm 3 mps 757 mmHg 81%
    20:00 +29°C° 0 mm 2 mps 758 mmHg 85%
    21:00 +28°C° 0 mm 2 mps 758 mmHg 86%
    22:00 +28°C° 0 mm 2 mps 758 mmHg 87%
    23:00 +28°C° 0 mm 2 mps 758 mmHg 87%

    27 November, Monday

    Time Temperature Precipitation Wind Pressure Humidity
    00:00 +28°C° 0 mm 2 mps 757 mmHg 88%
    01:00 +27°C° 0 mm 2 mps 757 mmHg 89%
    02:00 +27°C° 0 mm 2 mps 757 mmHg 90%
    03:00 +27°C° 0 mm 2 mps 757 mmHg 90%
    04:00 +27°C° 0 mm 1 mps 757 mmHg 91%
    05:00 +27°C° 0 mm 1 mps 757 mmHg 91%
    06:00 +28°C° 0 mm 1 mps 758 mmHg 88%
    07:00 +29°C° 0 mm 1 mps 758 mmHg 84%
    08:00 +30°C° 0 mm 1 mps 759 mmHg 80%
    09:00 +31°C° 0 mm 1 mps 759 mmHg 73%
    10:00 +33°C° 0 mm 1 mps 759 mmHg 66%
    11:00 +35°C° 0 mm 1 mps 758 mmHg 59%
    12:00 +34°C° 0.1 mm 1 mps 758 mmHg 58%
    13:00 +35°C° 0.1 mm 2 mps 757 mmHg 58%
    14:00 +35°C° 0.1 mm 2 mps 757 mmHg 58%
    15:00 +34°C° 0.2 mm 3 mps 757 mmHg 64%
    16:00 +33°C° 0.2 mm 3 mps 757 mmHg 71%
    17:00 +32°C° 0.2 mm 4 mps 757 mmHg 77%
    18:00 +30°C° 0 mm 4 mps 757 mmHg 81%
    19:00 +29°C° 0 mm 4 mps 758 mmHg 84%
    20:00 +29°C° 0 mm 3 mps 759 mmHg 87%
    21:00 +29°C° 0 mm 3 mps 758 mmHg 87%
    22:00 +29°C° 0 mm 2 mps 758 mmHg 87%
    23:00 +29°C° 0 mm 2 mps 758 mmHg 88%
    Show more